Location: Den Elshout
(51.8881°N, 4.6365°E)
Time: 18:26:34
(UTC+00:00)

Daily predictions for brighter satellites

Satellite Brightness Start Highest point End
(mag) Time Altitude Azimuth Time Altitude Azimuth Time Altitude Azimuth
Cosmos 2219 Rocket 4.5 18:47:17 10° W 18:51:57 26° NW 18:56:37 10° NNE
Cosmos 2263 4.4 18:47:12 10° NNW 18:52:46 58° NE 18:58:17 10° SE
Cosmos 1470 2.8 18:49:06 10° S 18:52:55 59° E 18:56:47 10° NNE
STARLINK-1244 3.6 18:48:49 10° WSW 18:52:58 86° SSE 18:57:08 10° ENE
PKM 4.5 18:50:12 10° WSW 18:53:42 80° NNW 19:00:24 10° ENE
Ariane Rocket 3.1 18:52:19 10° SSE 18:57:24 90° ESE 19:02:31 10° NNW
STARLINK-1138 3.6 18:53:48 10° WSW 18:57:58 88° SSE 19:02:08 10° ENE
Aureole 2 Rocket 2.4 18:55:01 10° NNW 18:58:32 81° ENE 19:01:59 10° SSE
Abrixas rocket 3.1 18:56:00 10° SW 18:58:37 28° SSE 19:01:14 10° E
STARLINK-67 2.6 18:56:37 10° W 18:59:11 64° N 19:01:46 10° E
Cosmos 2074 Rocket 4.3 18:53:42 10° N 18:59:49 50° ENE 19:05:55 10° SSE
Cosmos 1544 Rocket 3.8 18:56:13 10° SSW 19:00:38 78° W 19:05:07 10° N
ATLAS 2AS CENTAUR R/B 3.2 18:53:54 10° NW 19:01:36 58° NNE 19:08:43 10° ESE
STARLINK-1143 3.6 18:58:44 10° WSW 19:02:53 90° NNE 19:07:03 10° ENE
ISS -2.3 19:00:42 10° W 19:03:43 31° SSW 19:06:44 10° SE
Cosmos 1943 4.0 18:59:58 10° SSE 19:04:45 29° ESE 19:09:34 10° NE
Cosmos 1825 Rocket 4.1 19:00:38 10° N 19:04:49 40° ENE 19:08:57 10° SE
USA 234 4.3 19:01:28 10° ENE 19:06:28 23° SE 19:11:27 10° S
STARLINK-1241 3.7 19:03:46 10° WSW 19:07:55 87° NNW 19:12:06 10° ENE
SL-08 RB Rocket 3.8 19:05:13 10° SSE 19:09:41 62° ENE 19:14:15 10° N
STARLINK-1239 3.7 19:08:45 10° W 19:12:54 85° NNW 19:17:05 10° ENE
SPOT 3 Rocket 3.7 19:08:46 10° SSE 19:13:53 59° ENE 19:19:01 10° N
Cosmos 1758 Rocket 3.6 19:12:21 10° N 19:16:41 59° ENE 19:20:56 10° SSE
SeaSat 1 3.2 19:11:49 10° NNE 19:16:41 58° NW 19:21:31 10° SW
STARLINK-1240 3.7 19:13:43 10° W 19:17:53 83° N 19:22:03 10° ENE
SJ-6B 2.9 19:16:04 10° SSE 19:20:11 89° ENE 19:24:22 10° NNW
IRIDIUM 106 4.3 19:15:41 10° N 19:20:56 73° E 19:26:09 10° S
MOS 1 Rocket 4.3 19:17:08 10° NNE 19:21:56 33° E 19:26:48 10° SSE
STARLINK-1216 3.7 19:18:43 10° W 19:22:53 82° N 19:27:00 10° ENE
CZ-4C R/B 4.1 19:17:45 10° WNW 19:23:02 30° N 19:29:13 10° ENE
Cosmos 1953 Rocket 4.0 19:19:33 10° N 19:23:50 42° ENE 19:27:53 11° SE
SL-16 R/B 2.8 19:20:11 10° SW 19:25:47 62° NW 19:31:26 10° NNE
STARLINK-1237 3.7 19:23:43 10° W 19:27:52 80° N 19:31:47 12° E
Cosmos 1818 4.3 19:24:57 10° S 19:29:39 30° ESE 19:34:22 10° ENE
CZ-2C R/B 3.3 19:24:58 10° S 19:29:52 65° WSW 19:34:38 10° NNW
Cosmos 1606 Rocket 4.0 19:26:16 10° SSE 19:30:24 40° E 19:34:36 10° NNE
Cosmos 921 Rocket 4.2 19:27:00 10° N 19:30:32 25° NE 19:32:50 16° E
Terra 3.9 19:29:17 10° ENE 19:31:02 12° NE 19:32:48 10° NNE
Cosmos 1758 4.0 19:27:09 10° SSW 19:31:13 61° WNW 19:35:17 10° N
STARLINK-1233 3.1 19:29:09 10° W 19:32:18 69° N 19:34:36 17° E
STARLINK-1212 3.1 19:29:37 10° W 19:32:44 69° N 19:35:01 17° E
STARLINK-1202 3.7 19:28:41 10° W 19:32:51 79° N 19:36:33 13° E
STARLINK-1105 3.1 19:30:04 10° W 19:33:12 69° N 19:35:29 17° E
STARLINK-1206 3.0 19:30:33 10° W 19:33:40 69° N 19:35:53 17° E
SL-24 R/B 4.1 19:29:35 10° NNE 19:33:55 51° E 19:37:45 10° S
CZ-2C R/B 3.1 19:29:13 10° NNE 19:34:02 37° E 19:38:49 10° SSE
STARLINK-1247 3.0 19:30:59 10° W 19:34:06 69° N 19:36:19 18° E
STARLINK-1203 3.7 19:30:02 10° W 19:34:10 77° N 19:37:45 13° E
STARLINK-1227 3.1 19:31:24 10° W 19:34:32 69° N 19:36:45 18° E
STARLINK-1218 3.0 19:31:54 10° W 19:35:01 69° N 19:37:11 18° E
Cosmos 1656 Rocket 3.7 19:29:36 10° NNW 19:35:20 76° ENE 19:40:14 14° SE
STARLINK-1226 3.0 19:32:19 10° W 19:35:27 69° N 19:37:37 18° E
STARLINK-1254 3.1 19:32:46 10° W 19:35:53 69° N 19:38:04 18° E
Meteor 1-21 Rocket 4.5 19:30:38 10° NNW 19:36:11 70° W 19:41:41 10° S
STARLINK-1215 3.0 19:33:15 10° W 19:36:23 69° N 19:38:30 19° E
Cosmos 2228 3.4 19:32:24 10° SSE 19:36:27 42° E 19:40:34 10° NNE
STARLINK-1231 3.0 19:33:43 10° W 19:36:50 69° N 19:38:56 19° E
STARLINK-1232 3.0 19:34:37 10° W 19:37:44 69° N 19:39:48 19° E
STARLINK-1217 3.0 19:35:04 10° W 19:38:11 69° N 19:40:14 19° E
STARLINK-1208 3.1 19:35:28 10° W 19:38:37 69° N 19:40:41 19° E
STARLINK-1229 3.0 19:35:56 10° W 19:39:03 69° N 19:41:04 20° E
STARLINK-1271 3.0 19:36:24 10° W 19:39:31 69° N 19:41:32 20° E
STARLINK-1270 3.0 19:36:52 10° W 19:39:59 69° N 19:41:57 20° E
STARLINK-1154 3.0 19:37:18 10° W 19:40:25 69° N 19:42:23 21° E
STARLINK-1197 3.0 19:38:13 10° W 19:41:19 69° N 19:43:15 21° E
STARLINK-1189 3.0 19:38:40 10° W 19:41:48 69° N 19:43:42 21° E
STARLINK-1198 3.0 19:39:07 10° W 19:42:14 69° N 19:44:07 21° E
STARLINK-1188 3.0 19:39:34 10° W 19:42:41 69° N 19:44:33 22° E
STARLINK-1246 3.7 19:38:38 10° W 19:42:48 77° N 19:46:05 16° E
ARGOS 3.8 19:37:39 10° S 19:42:58 57° W 19:48:17 10° NNW
STARLINK-1235 3.0 19:40:13 10° W 19:43:22 71° N 19:45:11 23° E
STARLINK-1187 3.0 19:40:32 10° W 19:43:41 70° N 19:45:33 22° E
COSMOS 2455 3.4 19:38:21 10° NNW 19:44:10 46° NE 19:48:18 19° ESE
BREEZE-M DEB (TANK) 4.1 19:37:35 10° W 19:44:12 51° SSW 19:45:57 23° SE
STARLINK-1199 3.0 19:41:30 10° W 19:44:39 70° N 19:46:28 23° E
MetOp-A 4.2 19:39:39 10° SSE 19:45:01 88° WSW 19:50:25 10° NNW
STARLINK-1191 3.0 19:41:57 10° W 19:45:07 70° N 19:46:54 23° E
SL-4 R/B 3.7 19:43:05 10° S 19:43:44 12° SSE 19:43:44 12° SSE
STARLINK-1201 3.1 19:42:07 10° W 19:45:24 70° N 19:47:21 22° E
STARLINK-1210 3.0 19:42:24 10° W 19:45:33 70° N 19:47:20 23° E
STARLINK-1221 3.0 19:42:51 10° W 19:46:00 70° N 19:47:46 23° E
STARLINK-1219 3.0 19:43:18 10° W 19:46:27 70° N 19:48:13 24° E
Cosmos 1980 Rocket 4.5 19:44:21 10° N 19:46:52 13° NNE 19:49:25 10° NE
STARLINK-1222 3.0 19:43:46 10° W 19:46:55 70° N 19:48:38 24° E
STARLINK-1211 3.0 19:44:13 10° W 19:47:21 70° N 19:49:04 24° E
STARLINK-1214 3.0 19:44:40 10° W 19:47:49 70° N 19:49:31 24° E
STARLINK-1224 3.7 19:43:41 10° W 19:47:50 76° N 19:50:55 17° E
USA 186 3.8 19:45:04 10° SSW 19:48:04 30° W 19:51:00 10° NNW
Cosmos 1603 3.6 19:42:30 10° SSW 19:48:05 70° ESE 19:53:41 10° NE
STARLINK-1234 2.9 19:45:07 10° W 19:48:10 72° N 19:49:39 27° E
STARLINK-1228 2.8 19:45:17 10° WNW 19:48:11 72° N 19:49:30 29° E
STARLINK-1245 3.0 19:45:08 10° W 19:48:16 70° N 19:49:55 25° E
STARLINK-1238 3.0 19:45:34 10° W 19:48:43 70° N 19:50:23 25° E
Cosmos 1726 2.0 19:45:02 10° S 19:48:47 85° E 19:52:33 10° NNE
Cosmos 1340 Rocket 3.7 19:47:47 22° SE 19:49:15 29° E 19:52:46 10° NNE
STARLINK-1205 3.0 19:46:30 10° W 19:49:38 70° N 19:51:14 26° E
STARLINK-1204 3.0 19:46:57 10° W 19:50:04 70° N 19:51:39 26° E
ERS-1 Rocket 4.2 19:47:59 18° E 19:50:18 25° ENE 19:54:21 10° N
H-2A R/B 3.4 19:46:58 10° SSW 19:51:53 40° W 19:56:43 10° NNW
Cosmos 1328 3.7 19:48:13 10° N 19:52:15 81° ENE 19:55:27 16° SSE
STARLINK-1225 3.7 19:48:38 10° W 19:52:47 75° N 19:55:40 19° E
Meteor 1-16 Rocket 4.1 19:49:34 10° S 19:54:56 77° E 20:00:31 10° NNE
Resurs 1-3 3.7 19:51:24 10° S 19:55:48 79° WSW 20:00:13 10° NNW
Cosmos 2184 Rocket 4.2 19:50:09 10° NNW 19:56:29 75° W 20:02:42 10° S
STARLINK-1230 3.7 19:53:37 10° W 19:57:47 75° N 20:00:28 21° E
STARLINK-1209 2.7 19:55:30 10° WNW 19:58:28 76° N 19:59:26 38° E
STARLINK-1243 3.7 19:58:35 10° W 20:02:45 75° N 20:05:14 23° E
ATLAS CENTAUR R/B 3.8 20:00:28 10° NNW 20:02:50 15° N 20:05:08 10° NE
Cosmos 1703 3.4 19:59:45 10° NNW 20:03:43 75° W 20:06:52 16° S
Meteor 2-10 4.3 19:59:07 10° SSW 20:04:34 80° WNW 20:10:15 10° NNE
Cosmos 1461 3.2 20:01:20 10° NW 20:05:47 63° NE 20:07:55 30° ESE
ERBS 3.6 20:03:46 10° WNW 20:06:55 35° N 20:08:37 21° ENE
STARLINK-1236 3.7 20:03:38 10° W 20:07:47 75° N 20:10:03 26° E
DMSP B5D2-2 4.0 20:03:22 10° NNE 20:08:36 80° ESE 20:13:50 10° SSW
Cosmos 1953 3.5 20:04:56 10° SSW 20:08:45 44° WNW 20:12:35 10° N
Cosmos 2251 Rocket 4.0 20:05:55 10° SW 20:11:15 65° WNW 20:16:38 10° NNE
Cosmos 967 Rocket 4.5 20:05:02 10° SW 20:11:30 83° SE 20:18:01 10° NE
Resurs 01 Rocket 1.8 20:12:28 18° S 20:15:44 71° WSW 20:20:10 10° NNW
APEX 4.4 20:09:13 10° NNW 20:16:10 87° WSW 20:19:41 26° SSE
STARLINK-1269 3.7 20:13:34 10° W 20:17:43 75° N 20:19:36 31° E
Cosmos 2154 Rocket 4.1 20:11:59 10° NNW 20:18:22 78° W 20:24:20 12° S
NOSS 3-4 (A) 3.9 20:13:25 10° NW 20:20:18 78° SW 20:24:57 26° SSE
NOSS 3-4 (C) 3.9 20:13:31 10° NW 20:20:24 78° SW 20:25:02 26° SSE
Cosmos 2369 Rocket 3.9 20:16:16 10° NW 20:21:08 30° WSW 20:25:56 10° SSW
Cosmos 2058 Rocket 3.0 20:18:19 21° S 20:21:14 67° E 20:25:43 10° NNE
Cosmos 2181 Rocket 4.4 20:18:41 28° SE 20:21:20 41° E 20:27:04 10° NNE
USA 245 4.3 20:18:18 27° SSE 20:21:21 69° ENE 20:27:36 10° N
STARLINK-1200 3.7 20:18:32 10° W 20:22:42 75° N 20:24:22 35° E
Cosmos 1300 3.4 20:23:46 35° ENE 20:23:46 35° ENE 20:26:55 10° NNE
CZ-2C R/B 4.5 20:20:04 10° N 20:24:44 56° WNW 20:29:19 10° SSW
Cosmos 962 Rocket 4.4 20:19:09 10° N 20:25:22 80° E 20:29:12 25° SSE
Landsat 7 3.9 20:24:18 36° SE 20:26:02 60° ENE 20:30:44 10° N
Cosmos 1943 Rocket 4.4 20:22:38 10° NW 20:26:38 21° W 20:30:39 10° SSW
STARLINK-1192 3.7 20:23:32 10° W 20:27:41 76° N 20:29:09 39° E
Nadezhda 1 Rocket 4.1 20:22:05 10° SSW 20:28:30 82° W 20:34:54 10° N
SL-8 Rocket 4.1 20:23:41 10° N 20:29:57 61° ENE 20:32:55 32° SE
Cosmos 1908 3.6 20:27:24 11° SSW 20:31:07 64° WNW 20:35:00 10° N
NOSS 3-3 (A) 4.1 20:25:34 10° SW 20:31:35 80° NW 20:38:30 10° NE
NOSS 3-3 (C) 4.1 20:25:40 10° SW 20:31:41 80° NW 20:38:36 10° NE
STARLINK-1244 3.6 20:28:31 10° W 20:32:41 76° N 20:33:56 43° E
STARLINK-67 3.8 20:30:36 10° WNW 20:32:21 36° W 20:32:21 36° W
Abrixas rocket 3.3 20:31:03 10° WSW 20:32:54 30° SW 20:32:54 30° SW
CARTOSAT-1 4.0 20:36:52 41° E 20:37:23 44° ENE 20:41:30 10° N
STARLINK-1138 3.6 20:33:31 10° W 20:37:41 77° N 20:38:44 49° E
Cosmos 2058 3.4 20:33:56 10° N 20:37:51 41° ENE 20:37:54 41° ENE
SL-24 R/B - RUBIN 2 4.5 20:33:41 10° SSW 20:39:04 48° ESE 20:45:07 10° NE
SPOT 5 3.0 20:39:20 42° E 20:39:50 44° ENE 20:43:57 10° N
Cosmos 1726 Rocket 4.2 20:35:37 10° SSW 20:39:56 56° WNW 20:44:20 10° N
Cosmos 2366 rocket 4.1 20:34:14 10° N 20:40:19 58° ENE 20:42:31 38° SE
STARLINK-1143 3.6 20:38:26 10° W 20:42:36 78° N 20:43:27 55° E
Cosmos 1190 Rocket 3.9 20:40:52 17° SSW 20:44:58 70° ESE 20:50:16 10° NNE
STARLINK-1241 3.6 20:43:29 10° W 20:47:39 80° N 20:48:18 61° ENE
Cosmos 1943 3.7 20:42:51 10° SW 20:48:28 61° NW 20:54:08 10° NNE
Spot 2 Rocket 3.7 20:46:23 32° S 20:48:45 70° WSW 20:53:53 10° NNW
USA 234 3.2 20:43:50 10° ENE 20:50:21 65° SE 20:56:51 10° SW
Cosmos 1959 Rocket 4.5 20:44:57 10° N 20:51:19 71° ENE 20:53:38 41° SSE
Aureole 1 Rocket 4.1 20:44:19 10° SSW 20:52:00 89° WNW 20:58:01 10° NNE
STARLINK-1239 3.5 20:48:28 10° W 20:52:38 81° N 20:53:04 69° ENE
ATLAS 2AS CENTAUR R/B 3.3 20:45:17 10° NW 20:52:39 53° WSW 20:56:14 28° S
Cosmos 1140 Rocket 3.3 20:51:23 32° S 20:53:49 72° ESE 20:58:59 10° NNE
Iridium 4 Rocket 2.9 20:52:24 10° N 20:56:43 65° E 20:56:43 65° E
STARLINK-1240 3.5 20:53:27 10° WNW 20:57:36 82° N 20:57:51 77° ENE
Meteor 2-12 Rocket 4.5 20:52:14 10° N 20:58:19 62° ENE 20:59:54 47° SE
RESURS DK-1 3.8 20:55:54 10° NNW 20:59:26 26° NE 20:59:42 26° NE
Cosmos 1812 Rocket 4.0 21:00:32 45° ENE 21:00:32 45° ENE 21:04:01 10° NNE
BREEZE M DEB (TANK) 4.0 21:02:08 42° SE 21:02:08 42° SE 21:13:14 10° ENE
STARLINK-1216 3.5 20:58:26 10° WNW 21:02:36 84° N 21:02:39 84° NNE
Cosmos 1697 Rocket 3.7 21:00:19 10° NNW 21:05:29 34° NE 21:06:58 30° ENE
STARLINK-1237 3.6 21:03:26 10° WNW 21:07:26 82° NW 21:07:26 82° NW
Terra 1.8 21:07:36 59° E 21:07:52 60° ENE 21:12:34 10° N
Cosmos 468 Rocket 4.0 21:03:47 10° NNW 21:08:58 64° ENE 21:09:34 59° E
Cosmos 921 Rocket 3.7 21:05:02 10° NNW 21:09:00 43° WSW 21:09:39 39° SW
Cosmos 192 4.2 21:04:45 10° NNW 21:09:43 75° ENE 21:10:11 68° ESE
STARLINK-1202 3.7 21:08:24 10° WNW 21:12:12 74° WNW 21:12:12 74° WNW
Cosmos 676 Rocket 3.9 21:12:04 62° SSE 21:12:50 73° ESE 21:18:06 10° NNE
Cosmos 1818 3.9 21:07:30 10° SW 21:12:55 64° NW 21:18:22 10° NE
CZ-4C R/B 3.6 21:07:02 10° NW 21:13:14 42° NNE 21:17:32 23° E
STARLINK-1203 3.8 21:09:35 10° WNW 21:13:15 69° WNW 21:13:15 69° WNW
CZ-2C R/B 3.9 21:09:35 10° N 21:14:23 39° WNW 21:19:08 10° SW
Iridium 2 4.1 21:16:00 62° NNW 21:16:00 62° NNW 21:19:21 10° N
Mayak 0.9 21:12:16 10° NE 21:13:23 16° NE 21:13:23 16° NE
SL-08 R/B 4.4 21:09:43 10° N 21:15:51 71° ENE 21:17:08 56° SE
IGS 5A 4.1 21:16:12 46° WSW 21:16:40 48° W 21:20:45 10° NNW
Cosmos 407 Rocket 3.9 21:11:42 10° SW 21:16:47 61° WNW 21:21:54 10° NNE
BREEZE-M DEB (TANK) 4.5 21:14:27 10° WSW 21:14:47 12° WSW 21:14:47 12° WSW
SPOT 1/Viking Rocket 3.9 21:17:02 44° SSW 21:18:28 60° W 21:23:39 10° NNW
Meteor 2-10 Rocket 4.5 21:20:35 34° ENE 21:20:35 34° ENE 21:24:26 10° NNE
STARLINK-1246 4.0 21:18:20 10° WNW 21:21:44 59° W 21:21:44 59° W
Cosmos 1821 Rocket 4.2 21:16:48 10° N 21:23:01 53° ENE 21:23:55 49° ESE
STARLINK-1224 4.2 21:23:22 10° WNW 21:26:34 52° W 21:26:34 52° W
ERS-1 Rocket 3.2 21:27:58 54° SW 21:28:44 61° WSW 21:33:45 10° NNW
COSMOS 2455 3.4 21:24:25 10° NW 21:30:12 49° WSW 21:31:27 42° SSW
Cosmos 2208 Rocket 4.4 21:25:56 10° NNW 21:31:00 50° ENE 21:31:05 50° ENE
STARLINK-1225 4.4 21:28:19 10° WNW 21:31:20 46° W 21:31:20 46° W
Cosmos 1892 3.5 21:28:48 10° NNW 21:31:50 50° NW 21:31:50 50° NW
Cosmos 1980 Rocket 3.3 21:27:46 10° NNW 21:32:47 32° NE 21:33:52 29° ENE
ASTEX 1 4.0 21:33:47 45° NE 21:33:47 45° NE 21:38:00 10° N
Cosmos 220 Rocket 4.4 21:30:19 10° NNW 21:34:07 58° WNW 21:34:07 58° WNW
Cosmos 1455 4.2 21:37:02 21° NNE 21:37:02 21° NNE 21:38:28 10° NNE
Cosmos 1954 Rocket 4.0 21:37:55 59° SW 21:38:52 76° WNW 21:44:07 10° NNE
ATLAS CENTAUR R/B 2.8 21:39:20 10° NNW 21:42:19 29° NNE 21:42:19 29° NNE
Cosmos 1408 4.2 21:39:49 10° N 21:41:56 33° N 21:41:56 33° N
Cosmos 1656 3.5 21:44:33 10° NNW 21:50:18 90° SW 21:50:24 87° SSE
Cosmos 2278 4.2 21:46:25 10° NNW 21:51:54 46° NE 21:52:13 46° ENE
Cosmos 2151 3.8 21:48:08 10° NNW 21:51:14 48° NNW 21:51:14 48° NNW
Cosmos 1825 3.8 21:49:54 10° N 21:52:03 32° N 21:52:03 32° N
Cosmos 2082 Rocket 4.3 22:02:46 14° ENE 22:02:46 14° ENE 22:03:58 10° NE
ATLAS 5 CENTAUR R/B 2.8 22:02:17 38° NNE 22:02:17 38° NNE 22:05:33 10° NE
USA 32 4.2 21:55:26 10° NNW 22:00:37 64° W 22:00:37 64° W
Okean 3 Rocket 4.4 22:00:34 10° NNW 22:03:52 48° NNW 22:03:52 48° NNW
Cosmos 1814 Rocket 4.2 22:01:42 10° NNW 22:06:34 71° N 22:06:34 71° N
COSMOS 2406 4.0 22:09:22 39° ENE 22:09:22 39° ENE 22:13:07 10° NE
Cosmos-2242 4.2 22:09:24 39° N 22:09:24 39° N 22:12:12 10° N
ALOS 2 4.3 22:09:35 27° NNE 22:09:35 27° NNE 22:12:15 10° N
Cosmos 1763 Rocket 4.0 22:04:13 10° NNW 22:08:49 52° W 22:08:49 52° W
SPOT 5 4.4 22:18:33 24° W 22:18:33 24° W 22:21:44 10° NW
Cosmos 1833 Rocket 4.0 22:21:36 28° ENE 22:21:36 28° ENE 22:24:29 10° NE
Cosmos 1850 Rocket 4.5 22:26:13 57° N 22:26:13 57° N 22:30:27 10° NNE
Cosmos 540 Rocket 4.0 22:25:19 10° NNW 22:29:24 54° NW 22:29:24 54° NW
Cosmos 2369 3.9 22:26:36 10° NNW 22:31:29 65° NW 22:31:29 65° NW
USA 234 3.5 22:26:57 10° ENE 22:33:27 68° NNW 22:39:56 10° W
Nadezhda 3 Rocket 4.1 22:37:09 66° W 22:37:30 68° WNW 22:43:48 10° N
RESURS DK-1 4.4 22:33:41 10° NW 22:35:35 25° NW 22:35:35 25° NW
Cosmos 1535 Rocket 4.5 22:36:33 10° NNW 22:42:23 73° WNW 22:42:23 73° WNW
Cosmos 841 Rocket 4.4 22:37:45 10° NNW 22:41:45 43° WNW 22:41:45 43° WNW
Meteor 2-3 Rocket 4.0 22:37:24 10° NNW 22:42:30 65° NW 22:42:30 65° NW
Terra 3.8 22:46:29 21° W 22:46:29 21° W 22:49:39 10° NW
Cosmos 1697 Rocket 3.3 22:44:13 10° NW 22:48:42 49° WNW 22:48:42 49° WNW
Mayak 0.6 22:47:32 10° N 22:49:57 29° NNW 22:49:57 29° NNW
SL-16 R/B 3.1 22:55:13 10° NNW 23:00:32 42° NE 23:00:32 42° NE
CZ-4C R/B 2.7 22:55:33 10° NW 23:02:32 87° SW 23:02:43 85° S
Thor Agena Rocket 4.4 23:01:31 10° N 23:05:38 45° NW 23:05:38 45° NW
Cosmos 2360 Rocket 3.8 23:04:43 10° NNW 23:09:31 28° NE 23:10:44 26° ENE
Cosmos 2322 Rocket 3.1 23:06:34 10° NNW 23:11:48 42° NE 23:11:48 42° NE
Cosmos 2100 Rocket 4.3 23:07:19 10° N 23:12:54 57° NE 23:12:54 57° NE
Cosmos 1980 Rocket 3.0 23:11:38 10° NW 23:15:38 45° NW 23:15:38 45° NW
ATLAS CENTAUR R/B 4.2 23:18:15 10° NW 23:18:29 11° NW 23:18:29 11° NW
Cosmos 1605 Rocket 4.5 23:21:20 10° NNW 23:26:35 51° WNW 23:26:35 51° WNW
Cosmos 2173 Rocket 4.2 23:23:05 10° N 23:28:25 62° NE 23:28:25 62° NE
Cosmos 2344 4.3 23:27:17 10° NW 23:36:37 70° SW 23:38:51 59° S
Cosmos 2082 Rocket 2.8 23:44:35 54° NNE 23:44:35 54° NNE 23:48:58 10° NNE
ATLAS 5 CENTAUR R/B 3.8 23:43:41 17° WNW 23:46:09 26° NNW 23:50:34 10° NE
CZ-2D R/B 4.5 23:46:26 10° ENE 23:48:41 13° E 23:48:41 13° E
COSMOS 2406 4.4 23:51:23 33° WNW 23:52:09 35° NW 23:57:23 10° NNE
